SCP
0 0 0 0 0 0 0 0 0 0 0 0 0 0 0 0 0 0 0 0 0 0 0 0 0 0 0 0 0 0 0 0 0 0 0 0 0 0 0 0 0 0 0 0
0 0 0 0 0 0 0 0 0 0 0 0 0 0 0 0 0 0 0 0 0 0 0 0 0 0 0 0 0 0 0 0 0 0 0 0 0 0 0 0 0 0 0 0
0 0 0 0 0 0 0 0 0 0 0 0 0 0 0 0 0 0 0 0 0 0 0 0 0 0 0 0 0 0 0 0 0 0 0 0 0 0 0 0 0 0 0 0
0 0 0 0 0 0 0 0 0 0 0 0 0 0 0 0 0 0 0 0 0 0 0 0 0 0 0 0 0 0 0 0 0 0 0 0 0 0 0 0 0 0 0 0
0 0 0 0 0 0 0 0 0 0 0 0 0 0 0 0 0 0 0 0 0 0 0 0 0 0 0 0 0 0 0 0 0 0 0 0 0 0 0 0 0 0 0 0
0 0 0 0 0 0 0 0 0 0 0 0 0 0 0 0 0 0 0 0 0 0 0 0 0 0 0 0 0 0 0 0 0 0 0 0 0 0 0 0 0 0 0 0
0 0 0 0 0 0 0 0 0 0 0 0 0 0 0 0 0 0 0 0 0 0 0 0 0 0 0 0 0 0 0 0 0 0 0 0 0 0 0 0 0 0 0 0
0 0 0 0 0 0 0 0 0 0 0 0 0 0 0 0 0 0 0 0 0 0 0 0 0 0 0 0 0 0 0 0 0 0 0 0 0 0 0 0 0 0 0 0
0 0 0 0 0 0 0 0 0 0 0 0 0 0 0 0 0 0 0 0 0 0 0 0 0 0 0 0 0 0 0 0 0 0 0 0 0 0 0 0 0 0 0 0
0 0 0 0 0 0 0 0 0 0 0 0 0 0 0 0 0 0 0 0 0 0 0 0 0 0 0 0 0 0 0 0 0 0 0 0 0 0 0 0 0 0 0 0
0 0 0 0 0 0 0 0 0 0 0 0 0 0 0 0 0 0 0 0 0 0 0 0 0 0 0 0 0 0 0 0 0 0 0 0 0 0 0 0 0 0 0 0
0 0 0 0 0 0 0 0 0 0 0 0 0 0 0 0 0 0 0 0 0 0 0 0 0 0 0 0 0 0 0 0 0 0 0 0 0 0 0 0 0 0 0 0
0 0 0 0 0 0 0 0 0 0 0 0 0 0 0 0 0 0 0 0 0 0 0 0 0 0 0 0 0 0 0 0 0 0 0 0 0 0 0 0 0 0 0 0
0 0 0 0 0 0 0 0 0 0 0 0 0 0 0 0 0 0 0 0 0 0 0 0 0 0 0 0 0 0 0 0 0 0 0 0 0 0 0 0 0 0 0 0
0 0 0 0 0 0 0 0 0 0 0 0 0 0 0 0 0 0 0 0 0 0 0 0 0 0 0 0 0 0 0 0 0 0 0 0 0 0 0 0 0 0 0 0
0 0 0 0 0 0 0 0 0 0 0 0 0 0 0 0 0 0 0 0 0 0 0 0 0 0 0 0 0 0 0 0 0 0 0 0 0 0 0 0 0 0 0 0
0 0 0 0 0 0 0 0 0 0 0 0 0 0 0 0 0 0 0 0 0 0 0 0 0 0 0 0 0 0 0 0 0 0 0 0 0 0 0 0 0 0 0 0
0 0 0 0 0 0 0 0 0 0 0 0 0 0 0 0 0 0 0 0 0 0 0 0 0 0 0 0 0 0 0 0 0 0 0 0 0 0 0 0 0 0 0 0
0 0 0 0 0 0 0 0 0 0 0 0 0 0 0 0 0 0 0 0 0 0 0 0 0 0 0 0 0 0 0 0 0 0 0 0 0 0 0 0 0 0 0 0
0 0 0 0 0 0 0 0 0 0 0 0 0 0 0 0 0 0 0 0 0 0 0 0 0 0 0 0 0 0 0 0 0 0 0 0 0 0 0 0 0 0 0 0
0 0 0 0 0 0 0 0 0 0 0 0 0 0 0 0 0 0 0 0 0 0 0 0 0 0 0 0 0 0 0 0 0 0 0 0 0 0 0 0 0 0 0 0
0 0 0 0 0 0 0 0 0 0 0 0 0 0 0 0 0 0 0 0 0 0 0 0 0 0 0 0 0 0 0 0 0 0 0 0 0 0 0 0 0 0 0 0
0 0 0 0 0 0 0 0 0 0 0 0 0 0 0 0 0 0 0 0 0 0 0 0 0 0 0 0 0 0 0 0 0 0 0 0 0 0 0 0 0 0 0 0
0 0 0 0 0 0 0 0 0 0 0 0 0 0 0 0 0 0 0 0 0 0 0 0 0 0 0 0 0 0 0 0 0 0 0 0 0 0 0 0 0 0 0 0
0 0 0 0 0 0 0 0 0 0 0 0 0 0 0 0 0 0 0 0 0 0 0 0 0 0 0 0 0 0 0 0 0 0 0 0 0 0 0 0 0 0 0 0
0 0 0 0 0 0 0 0 0 0 0 0 0 0 0 0 0 0 0 0 0 0 0 0 0 0 0 0 0 0 0 0 0 0 0 0 0 0 0 0 0 0 0 0
0 0 0 0 0 0 0 0 0 0 0 0 0 0 0 0 0 0 0 0 0 0 0 0 0 0 0 0 0 0 0 0 0 0 0 0 0 0 0 0 0 0 0 0
Wind_Speed
5 3 3 5 7 8 10 10 11 10 9 9 5 5 3 2 1 1 1 2 3 3 4 4 5 5 6 6 6 7 8 9 10 10 9 10 10 10 10 10 11 11 11 11
2 1 2 6 10 10 10 8 9 8 9 4 1 1 1 2 2 2 2 3 4 4 5 5 5 6 6 7 7 7 9 10 10 10 10 10 11 11 11 11 11 11 11 12
3 2 4 9 10 8 6 6 8 9 7 2 1 1 3 3 2 2 3 4 4 5 5 5 6 6 7 7 8 8 9 10 11 11 11 12 12 12 12 12 11 12 11 12
1 1 8 9 1 5 4 4 5 4 2 3 2 2 3 2 1 2 3 4 4 5 5 5 5 6 7 7 8 9 10 11 11 11 12 12 12 12 13 11 11 11 12 12
4 3 9 10 4 5 6 4 4 5 3 2 1 3 3 0 0 2 3 3 4 4 5 5 7 7 7 8 9 9 10 11 11 11 13 13 13 13 13 12 12 11 11 12
5 4 9 7 1 2 4 3 3 5 4 2 2 1 4 2 2 3 4 3 4 4 5 6 7 6 7 9 9 11 11 12 11 11 13 14 14 14 12 11 12 12 12 12
6 6 11 7 2 4 4 6 4 4 4 3 4 5 4 3 3 3 4 5 4 5 6 7 7 7 8 10 11 11 11 12 12 11 12 13 13 12 12 12 12 13 13 12
6 6 12 3 5 7 5 3 4 3 3 3 3 3 3 3 4 5 5 5 5 6 7 7 7 7 10 11 11 11 11 12 12 12 11 12 12 13 12 12 12 12 12 12
10 8 2 1 4 2 3 3 2 2 1 1 1 3 3 4 5 5 5 6 5 6 8 8 7 7 10 12 11 11 12 12 12 12 11 11 12 13 12 10 10 11 10 11
4 5 3 2 2 2 2 2 1 1 0 1 2 3 4 5 5 5 6 6 6 7 9 10 9 8 9 11 11 11 12 13 12 12 12 11 9 9 10 10 10 11 11 11
4 3 1 2 2 2 2 2 1 1 0 1 2 3 4 4 5 6 6 6 6 7 9 11 10 10 10 10 10 11 12 12 12 11 11 11 10 9 11 9 12 14 11 10
7 6 6 5 3 3 2 1 1 0 1 1 2 4 5 5 6 6 7 7 8 8 9 11 10 11 10 9 9 11 12 11 10 10 10 10 11 11 15 17 23 23 22 19
3 3 4 3 4 3 2 1 1 1 2 3 3 4 4 5 5 6 7 8 9 10 10 11 11 11 11 9 9 10 12 12 10 10 10 11 11 12 13 14 18 20 21 22
3 4 4 3 3 2 2 1 1 0 2 3 4 4 5 6 6 8 9 9 9 10 11 11 11 12 11 9 9 11 11 13 13 10 10 10 10 11 11 12 13 11 13 19
3 3 4 4 4 2 2 1 0 2 3 4 4 5 6 7 9 10 10 9 9 10 11 10 11 13 10 9 10 11 10 9 9 9 9 10 10 10 10 11 11 11 10 11
4 4 4 4 3 2 1 0 2 4 5 5 6 8 8 8 9 10 10 9 9 11 12 11 12 12 10 10 11 10 9 16 16 11 10 10 10 10 10 10 10 10 10 9
5 4 3 2 1 1 2 3 4 6 6 7 9 9 8 9 10 11 10 9 9 11 11 12 13 12 10 10 10 9 9 11 18 12 9 9 10 10 10 10 10 10 9 11
4 4 4 3 3 3 4 5 6 7 7 8 9 8 9 9 11 12 11 10 10 11 11 11 11 11 10 10 9 8 9 9 9 9 9 9 10 9 9 9 10 11 9 10
3 2 1 2 3 4 5 6 7 7 8 8 9 9 10 10 11 11 10 10 11 13 10 8 16 13 10 11 14 8 9 10 10 9 9 13 12 9 9 10 10 10 10 9
1 0 1 3 3 4 6 7 8 8 9 8 9 10 11 11 10 10 10 10 10 10 10 12 12 9 9 10 15 8 8 10 10 10 9 9 10 10 9 10 10 10 9 9
2 3 4 5 6 6 7 8 8 9 10 9 9 11 12 12 10 9 9 11 10 9 10 16 10 8 8 11 15 7 8 9 9 9 9 9 10 10 10 10 10 10 9 9
3 4 5 6 6 8 8 7 8 9 10 10 10 10 11 12 11 9 9 10 10 14 10 7 7 12 16 18 7 7 8 9 9 9 9 9 9 10 10 10 10 9 9 9
4 5 6 7 8 8 9 9 9 9 10 11 11 11 11 11 8 9 11 7 6 14 11 7 13 21 24 12 6 7 9 9 9 9 9 9 9 9 10 11 10 9 9 8
6 6 7 7 6 7 10 10 9 8 9 10 10 10 10 9 8 7 8 14 17 18 10 13 21 23 21 8 7 8 8 9 9 9 9 8 8 8 9 10 9 9 9 10
6 7 7 7 7 7 9 10 9 9 9 8 9 10 8 7 8 9 8 9 15 17 9 13 20 21 12 7 8 8 8 9 10 10 8 8 8 9 9 9 9 9 8 8
6 6 7 7 7 7 7 7 7 8 8 9 9 7 6 6 8 8 8 9 11 15 11 8 9 12 8 8 9 9 9 10 11 9 9 9 9 9 9 9 11 9 8 8
6 6 6 7 7 6 6 7 8 9 8 9 11 9 8 8 8 8 9 8 8 8 8 8 7 7 8 8 9 9 8 9 9 8 8 8 8 8 9 10 9 8 8 8
Wind_Direction
237 233 203 224 220 200 200 203 213 235 237 260 257 244 239 236 240 233 288 305 301 303 303 310 316 315 312 308 309 310 309 306 300 297 294 292 291 290 288 286 285 283 283 280
275 298 252 261 246 226 225 222 231 255 269 264 238 152 202 226 219 236 280 292 297 303 307 309 309 307 307 305 306 308 305 300 299 298 298 295 294 293 292 289 287 286 284 283
257 314 347 274 245 210 208 205 193 217 232 176 164 212 232 235 234 251 282 289 292 296 294 296 297 297 298 297 302 303 299 297 298 298 298 297 297 298 295 294 289 289 286 284
176 81 243 244 243 176 185 225 202 192 183 176 209 261 275 238 210 273 283 287 292 295 296 296 294 295 294 297 300 299 297 296 296 296 298 299 298 297 296 293 292 291 290 287
149 224 276 289 251 182 177 239 198 177 186 190 9 4 331 337 203 257 273 280 280 283 286 292 295 294 300 301 300 298 297 297 297 298 301 302 301 299 298 297 294 291 291 291
150 191 242 251 186 149 113 250 218 167 175 179 115 17 270 285 318 306 305 298 294 298 300 300 298 302 303 301 301 299 298 298 299 299 299 300 299 298 297 295 294 296 294 291
178 216 258 251 203 125 179 240 174 169 180 178 191 213 248 305 309 304 303 300 301 302 298 293 297 302 298 298 296 296 298 299 299 297 296 296 296 296 297 297 297 297 296 294
163 198 250 220 146 177 199 149 147 163 178 196 228 268 294 303 303 311 310 305 305 303 299 298 297 298 298 298 296 299 300 300 300 299 298 302 299 299 298 298 301 301 299 298
189 208 243 154 166 155 135 138 155 169 187 193 259 280 296 300 303 302 296 296 297 295 297 298 293 288 292 297 301 304 304 302 302 302 299 298 298 300 302 301 300 301 299 299
225 254 228 176 138 116 108 125 122 123 149 190 262 286 294 294 293 293 293 295 295 298 299 300 299 291 285 294 301 303 303 304 304 305 304 301 297 297 298 300 299 299 299 300
232 240 161 219 187 147 100 78 67 38 14 253 269 280 277 281 284 285 288 288 288 289 291 293 296 295 293 295 300 301 302 303 304 302 302 303 299 295 297 289 291 299 299 299
216 203 180 201 183 149 142 154 171 203 308 292 249 261 272 274 275 278 283 286 288 286 286 290 295 296 297 294 295 299 304 306 305 304 303 302 303 302 298 298 302 304 304 304
180 147 146 136 123 124 146 167 177 203 241 268 274 261 265 270 272 277 281 284 285 287 288 291 293 295 296 295 294 294 297 301 302 301 302 302 303 305 307 308 305 305 307 309
134 122 126 137 143 138 140 146 153 271 272 262 264 270 271 272 276 281 281 281 283 286 288 289 290 292 293 294 294 293 295 298 301 298 297 298 300 301 302 305 309 308 309 310
116 122 140 129 121 117 117 115 26 307 292 287 272 274 275 277 280 281 282 283 286 287 288 289 290 291 293 293 293 295 297 297 295 293 294 296 298 299 299 299 300 304 306 308
126 107 115 119 126 128 130 242 277 280 279 279 282 280 275 272 275 280 281 280 285 290 293 293 290 290 294 294 295 297 295 299 305 301 299 299 300 300 300 300 301 302 304 307
140 147 151 155 179 224 244 247 251 262 271 276 276 279 282 284 285 285 283 279 274 278 283 284 285 290 292 290 291 294 294 296 301 303 297 298 299 298 299 300 301 301 300 303
153 155 164 178 205 243 266 268 265 267 267 268 277 281 281 282 284 286 289 291 291 287 280 275 280 289 288 290 291 289 291 292 294 296 298 298 298 297 300 301 300 300 301 305
124 133 162 226 239 245 258 269 271 270 272 276 278 278 276 275 277 280 285 289 291 293 289 278 297 302 292 292 300 290 290 295 297 296 297 301 305 299 298 298 298 300 302 303
85 75 279 277 271 256 263 270 275 278 278 277 278 281 283 281 278 281 283 280 272 271 281 291 294 287 287 290 298 291 292 295 297 298 299 299 300 300 299 299 300 300 301 300
313 293 287 282 281 277 272 273 277 280 283 281 277 278 281 283 281 279 282 287 282 273 282 294 297 292 292 296 302 296 294 296 297 296 297 299 301 301 301 300 300 300 301 300
284 283 284 284 284 285 284 281 278 281 285 285 280 278 281 285 285 279 266 267 280 292 297 286 286 294 302 308 300 295 295 296 296 295 295 296 299 301 301 301 301 300 299 299
281 280 282 283 284 286 291 288 282 280 280 281 282 282 280 281 282 284 289 280 278 294 300 287 297 305 310 312 300 296 295 296 295 295 294 294 295 297 299 300 299 300 300 300
288 288 286 287 291 291 290 288 285 280 277 278 276 273 275 282 282 266 266 288 298 301 298 297 305 310 315 310 298 295 294 294 292 292 292 292 293 296 296 297 297 297 296 298
284 284 285 288 288 282 280 286 290 288 284 282 278 275 269 263 272 284 285 285 293 301 296 299 306 310 311 297 295 295 293 291 292 297 295 296 296 296 295 296 296 297 297 298
279 278 276 271 269 275 280 284 286 288 290 291 291 287 281 276 274 279 284 283 283 294 297 293 293 300 295 291 293 294 294 296 298 297 294 295 295 296 296 297 296 296 296 296
280 277 279 282 277 268 269 276 281 285 285 287 292 293 291 290 288 287 288 289 290 290 290 290 290 291 292 292 294 294 294 293 292 292 293 294 294 294 294 295 294 295 295 294